DW8306 Weather Reports


time (UTC)temp
C
wind
direction
speed
KPH
gust
KPH
rain 1hr
cm
rain 24hr
cm
rain mn
cm
humidity
%
barometer
mb
20260831053032 26 65 0.0 0.0 0.00 0.00 0.00 78 1014.8
20260831051545 26 66 0.0 0.0 0.00 0.00 0.00 78 1014.8
20260831050027 26 66 0.0 0.0 0.00 0.00 0.00 78 1014.9
20260831044526 26 78 0.0 1.6 0.00 0.00 0.00 79 1014.7
20260831043026 26 304 0.0 0.0 0.00 0.00 0.00 78 1014.5
20260831041532 27 304 0.0 1.6 0.00 0.00 0.00 78 1014.5
20260831040040 27 304 0.0 1.6 0.00 0.00 0.00 77 1014.5
20260831034524 27 304 0.0 0.0 0.00 0.00 0.00 76 1014.5
20260831033026 27 304 0.0 0.0 0.00 0.00 0.00 76 1014.5
20260831031525 28 304 0.0 0.0 0.00 0.00 0.00 75 1014.3
20260831030022 28 304 0.0 0.0 0.00 0.00 0.00 74 1014.1
20260831024522 28 304 0.0 1.6 0.00 0.00 0.00 74 1013.8
20260831023034 28 112 0.0 6.4 0.00 0.00 0.00 73 1013.6
20260831021544 28 120 0.0 1.6 0.00 0.00 0.00 73 1013.5
20260831020021 29 154 0.0 0.0 0.00 0.00 0.00 72 1013.2
20260831014521 29 154 0.0 0.0 0.00 0.00 0.00 70 1013.0
20260831013019 30 69 0.0 0.0 0.00 0.00 0.00 68 1012.9
20260831011519 30 69 0.0 0.0 0.00 0.00 0.00 66 1012.8
20260831010037 31 69 0.0 1.6 0.00 0.00 0.00 63 1012.8
20260831004518 31 69 0.0 0.0 0.00 0.00 0.00 62 1012.7
20260831003013 32 69 0.0 1.6 0.00 0.00 0.00 61 1012.6
20260831001528 33 69 0.0 1.6 0.00 0.00 0.00 57 1012.7
20260831000012 34 69 0.0 1.6 0.00 0.00 0.00 55 1012.7
20260830234510 35 69 0.0 1.6 0.00 0.00 0.00 51 1012.6
20260830233010 35 69 0.0 3.2 0.00 0.00 0.00 48 1012.5
20260830231518 36 169 0.0 0.0 0.00 0.00 0.00 49 1012.6
20260830230009 36 160 0.0 3.2 0.00 0.00 0.00 45 1012.6
20260830224509 37 311 0.0 0.0 0.00 0.00 0.00 47 1012.5
20260830223015 37 221 0.0 6.4 0.00 0.00 0.00 47 1012.6
20260830221506 37 216 0.0 1.6 0.00 0.00 0.00 47 1012.6
20260830220008 37 208 0.0 1.6 0.00 0.00 0.00 48 1012.6
20260830214504 37 139 0.0 3.2 0.00 0.00 0.00 42 1012.8
20260830213002 37 77 1.6 4.8 0.00 0.00 0.00 42 1012.9
20260830211506 37 83 0.0 6.4 0.00 0.00 0.00 45 1013.0
20260830210103 37 349 0.0 8.0 0.00 0.00 0.00 45 1013.1
20260830204556 37 111 3.2 9.7 0.00 0.00 0.00 41 1013.3
20260830203110 37 162 0.0 3.2 0.00 0.00 0.00 44 1013.6
20260830201552 36 25 4.8 8.0 0.00 0.00 0.00 44 1013.8
20260830200048 36 41 0.0 8.0 0.00 0.00 0.00 48 1014.1
20260830194547 37 44 0.0 6.4 0.00 0.00 0.00 49 1014.4
20260830193044 36 66 1.6 11.3 0.00 0.00 0.00 50 1014.6
20260830191542 36 110 0.0 8.0 0.00 0.00 0.00 53 1014.9
20260830190041 36 80 0.0 4.8 0.00 0.00 0.00 49 1015.1
20260830184541 35 151 0.0 8.0 0.00 0.00 0.00 54 1015.2
20260830183038 36 78 0.0 3.2 0.00 0.00 0.00 54 1015.3
20260830181545 36 97 0.0 3.2 0.00 0.00 0.00 56 1015.3
20260830180050 35 156 0.0 3.2 0.00 0.00 0.00 58 1015.5
20260830174533 33 77 4.8 9.7 0.00 0.00 0.00 57 1015.6
20260830173052 33 30 0.0 3.2 0.00 0.00 0.00 60 1015.8
20260830171530 33 131 1.6 6.4 0.00 0.00 0.00 59 1015.8
20260830170027 33 83 1.6 6.4 0.00 0.00 0.00 58 1015.9
20260830164525 33 135 0.0 8.0 0.00 0.00 0.00 60 1016.2
20260830163022 33 95 0.0 3.2 0.00 0.00 0.00 59 1016.3
20260830161522 33 313 0.0 6.4 0.00 0.00 0.00 59 1016.5
20260830160018 32 237 0.0 9.7 0.00 0.00 0.00 63 1016.4
20260830154516 32 292 0.0 8.0 0.00 0.00 0.00 62 1016.4
20260830153012 31 297 1.6 8.0 0.00 0.00 0.00 66 1016.3
20260830151518 31 159 0.0 8.0 0.00 0.00 0.00 70 1016.4
20260830150008 30 159 0.0 3.2 0.00 0.00 0.00 71 1016.5
20260830144509 30 285 3.2 8.0 0.00 0.00 0.00 72 1016.7
20260830143002 30 78 0.0 3.2 0.00 0.00 0.00 75 1016.7
20260830141600 28 79 0.0 3.2 0.00 0.00 0.00 77 1016.6
20260830140106 27 41 0.0 1.6 0.00 0.00 0.00 80 1016.8
20260830134555 26 41 0.0 0.0 0.00 0.00 0.00 85 1016.7
20260830133046 25 41 0.0 0.0 0.00 0.00 0.00 88 1016.6
20260830131604 23 41 0.0 0.0 0.00 0.00 0.00 90 1016.6
20260830130042 23 41 0.0 0.0 0.00 0.00 0.00 90 1016.5
20260830124540 23 41 0.0 0.0 0.00 0.00 0.00 91 1016.3
20260830123041 22 41 0.0 0.0 0.00 0.00 0.00 91 1016.2
20260830121538 22 41 0.0 0.0 0.00 0.00 0.00 91 1016.0
20260830120037 22 41 0.0 0.0 0.00 0.00 0.00 90 1015.9
20260830114540 22 41 0.0 0.0 0.00 0.00 0.00 90 1015.7
20260830113031 22 41 0.0 0.0 0.00 0.00 0.00 90 1015.6
20260830111530 23 41 0.0 0.0 0.00 0.00 0.00 90 1015.4
20260830110031 23 41 0.0 0.0 0.00 0.00 0.00 90 1015.2
20260830104527 23 41 0.0 0.0 0.00 0.00 0.00 89 1015.3
20260830103026 23 41 0.0 0.0 0.00 0.00 0.00 89 1015.3
20260830101524 23 41 0.0 0.0 0.00 0.00 0.00 88 1015.3
20260830100024 23 41 0.0 0.0 0.00 0.00 0.00 88 1015.1
20260830094522 23 41 0.0 1.6 0.00 0.00 0.00 88 1015.0
20260830093022 23 41 0.0 0.0 0.00 0.00 0.00 87 1015.0
20260830091526 23 41 0.0 0.0 0.00 0.00 0.00 87 1014.9
20260830090020 23 41 0.0 0.0 0.00 0.00 0.00 86 1015.0
20260830084518 23 41 0.0 0.0 0.00 0.00 0.00 85 1015.0
20260830083017 23 41 0.0 0.0 0.00 0.00 0.00 84 1015.1
20260830081523 23 41 0.0 1.6 0.00 0.00 0.00 84 1015.0
20260830080016 23 41 0.0 0.0 0.00 0.00 0.00 83 1015.1
20260830074523 23 41 0.0 1.6 0.00 0.00 0.00 83 1015.2
20260830073012 23 90 0.0 0.0 0.00 0.00 0.00 82 1015.3
20260830071512 24 90 0.0 0.0 0.00 0.00 0.00 81 1015.4
20260830070010 24 90 0.0 0.0 0.00 0.00 0.00 81 1015.4
20260830064509 24 90 0.0 0.0 0.00 0.00 0.00 81 1015.4
20260830063010 24 90 0.0 0.0 0.00 0.00 0.00 81 1015.4
20260830061519 23 90 0.0 0.0 0.00 0.00 0.00 81 1015.3
20260830060005 24 90 0.0 0.0 0.00 0.00 0.00 82 1015.3
20260830054520 24 75 0.0 0.0 0.00 0.00 0.00 81 1015.2